Location: Proctor
(47.8934°N, 114.3048°W)
Time: 21:50:50
(UTC+00:00)

Tiros 1 despin weight - Pass Details

Date: 29 June 2024
Orbit: 576 x 620 km, 48.2° (Epoch: 19 July)

Event Time Altitude Azimuth Distance (km) Brightness Sun altitude
Rises 18:49:29 0° 258° (WSW) 2,878 ? 63.2°
Reaches altitude 10° 18:51:46 10° 258° (WSW) 1,978 ? 63.4°
Maximum altitude 18:56:20 86° 170° (S) 626 ? 63.7°
Drops below altitude 10° 19:00:56 10° 82° (E) 1,989 ? 64.0°
Sets 19:03:15 0° 82° (E) 2,895 ? 64.2°
